Change the Weather History Date:

Saturday, March 28, 2015

  Actual Average Record
Temperature  
Mean Temperature 61 °F 55 °F  
Max Temperature 74 °F 64 °F 79 °F (1968)
Min Temperature 48 °F 47 °F 38 °F (1950)
Degree Days  
Heating Degree Days 4 10  
Month to date heating degree days 182 304  
Since 1 July heating degree days 1491 2326  
Cooling Degree Days 0 0  
Month to date cooling degree days 1 0  
Year to date cooling degree days 1 0  
Growing Degree Days 10 (Base 50)    
Moisture  
Dew Point 49 °F    
Average Humidity 69    
Maximum Humidity 93    
Minimum Humidity 44    
Precipitation  
Precipitation 0.00 in 0.08 in 0.32 in (2006)
Month to date precipitation 0.09 2.84  
Year to date precipitation 2.09 10.78  
Sea Level Pressure  
Sea Level Pressure 30.14 in    
Wind  
Wind Speed 6 mph (West)    
Max Wind Speed 24 mph    
Max Gust Speed 26 mph    
Visibility 10 miles    
Events      
T = Trace of Precipitation, MM = Missing Value Source: NWS Daily Summary

Daily Weather History Graph

Daily Weather History Graph

Search for Another Location

Airport or City:

Trip Planner

Search our weather history database for the weather conditions in past years. The results will help you decide how hot, cold, wet, or windy it might be!

Date:

Astronomy

Mar. 28, 2015 Rise Set
Actual Time 7:00 AM PDT 7:28 PM PDT
Civil Twilight 6:34 AM PDT 7:54 PM PDT
Nautical Twilight 6:03 AM PDT 8:25 PM PDT
Astronomical Twilight 5:31 AM PDT 8:56 PM PDT
Moon 1:39 PM PDT (3/28) 3:03 AM PDT (3/28)
Length of Visible Light 13h 20m
Length of Day
12h 27m
Waxing Gibbous, 64% of the Moon is Illuminated
Mar 28
Waxing Gibbous
Apr 4
Full
Apr 11
Last Quarter
Apr 18
New
Apr 25
First Quarter

Hourly Weather History & Observations

Time (PDT) Temp. Dew Point Humidity Pressure Visibility Wind Dir Wind Speed Gust Speed Precip Events Conditions
12:53 AM 53.1 °F 50.0 °F 89% 30.17 in 10.0 mi Calm Calm - N/A   Scattered Clouds
1:53 AM 53.1 °F 50.0 °F 89% 30.17 in 10.0 mi Calm Calm - N/A   Scattered Clouds
2:53 AM 52.0 °F 48.9 °F 89% 30.16 in 10.0 mi Calm Calm - N/A   Scattered Clouds
3:53 AM 50.0 °F 48.0 °F 93% 30.15 in 10.0 mi NE 4.6 mph - N/A   Partly Cloudy
4:53 AM 50.0 °F 48.0 °F 93% 30.14 in 10.0 mi East 3.5 mph - N/A   Partly Cloudy
5:53 AM 48.9 °F 46.9 °F 93% 30.16 in 10.0 mi ENE 4.6 mph - N/A   Scattered Clouds
6:53 AM 51.1 °F 48.0 °F 89% 30.16 in 10.0 mi East 5.8 mph - N/A   Scattered Clouds
7:53 AM 53.1 °F 51.1 °F 93% 30.18 in 10.0 mi East 4.6 mph - N/A   Scattered Clouds
8:53 AM 57.0 °F 55.0 °F 93% 30.19 in 10.0 mi Calm Calm - N/A   Mostly Cloudy
9:53 AM 59.0 °F 53.1 °F 81% 30.20 in 10.0 mi Calm Calm - N/A   Mostly Cloudy
10:53 AM 61.0 °F 51.1 °F 70% 30.20 in 10.0 mi WSW 6.9 mph - N/A   Scattered Clouds
11:53 AM 64.0 °F 51.1 °F 63% 30.19 in 10.0 mi WSW 8.1 mph - N/A   Scattered Clouds
12:53 PM 68.0 °F 46.0 °F 45% 30.17 in 10.0 mi West 10.4 mph - N/A   Partly Cloudy
1:53 PM 70.0 °F 46.9 °F 44% 30.14 in 10.0 mi West 8.1 mph - N/A   Partly Cloudy
2:53 PM 71.1 °F 48.9 °F 45% 30.11 in 10.0 mi WSW 12.7 mph - N/A   Partly Cloudy
3:53 PM 71.1 °F 52.0 °F 51% 30.09 in 10.0 mi WSW 10.4 mph - N/A   Scattered Clouds
4:53 PM 69.1 °F 48.0 °F 47% 30.08 in 10.0 mi West 18.4 mph - N/A   Scattered Clouds
5:53 PM 64.9 °F 48.9 °F 56% 30.08 in 10.0 mi West 9.2 mph - N/A   Scattered Clouds
6:53 PM 64.0 °F 48.9 °F 58% 30.08 in 10.0 mi West 11.5 mph - N/A   Partly Cloudy
7:53 PM 61.0 °F 48.0 °F 62% 30.08 in 10.0 mi West 9.2 mph - N/A   Partly Cloudy
8:53 PM 59.0 °F 48.9 °F 69% 30.09 in 10.0 mi WSW 4.6 mph - N/A   Clear
9:53 PM 57.0 °F 48.9 °F 74% 30.11 in 10.0 mi WSW 3.5 mph - N/A   Clear
10:53 PM 54.0 °F 48.0 °F 80% 30.12 in 10.0 mi NNW 4.6 mph - N/A   Clear
11:53 PM 54.0 °F 48.0 °F 80% 30.12 in 10.0 mi Calm Calm - N/A   Clear